Biloxi, MS

3:03 AM CDT on October 17, 2017 (GMT -0500)
Keesler Air Force Base

Weather History for KBIX - October, 2012

Change the Weather History Date:

Friday, October 26, 2012

  Actual Average Record
Temperature  
Mean Temperature 74 °F -  
Max Temperature 84 °F 76 °F 86 °F (1978)
Min Temperature 64 °F 55 °F 40 °F (1955)
Cooling Degree Days 8    
Growing Degree Days 24 (Base 50)    
Moisture  
Dew Point 64 °F    
Average Humidity 75    
Maximum Humidity 98    
Minimum Humidity 44    
Precipitation  
Precipitation 0.00 in - - ()
Sea Level Pressure  
Sea Level Pressure 29.95 in    
Wind  
Wind Speed 6 mph (North)    
Max Wind Speed 15 mph    
Max Gust Speed -    
Visibility 10 miles    
Events      
Averages and records for this station are not official NWS values.
T = Trace of Precipitation, MM = Missing Value Source: NWS Daily Summary

Daily Weather History Graph

Daily Weather History Graph

Search for Another Location

Airport or City:

Trip Planner

Search our weather history database for the weather conditions in past years. The results will help you decide how hot, cold, wet, or windy it might be!

Date:

Astronomy

Oct. 26, 2012 Rise Set
Actual Time 7:05 AM CDT 6:12 PM CDT
Civil Twilight 6:41 AM CDT 6:37 PM CDT
Nautical Twilight 6:13 AM CDT 7:05 PM CDT
Astronomical Twilight 5:45 AM CDT 7:33 PM CDT
Moon 4:20 PM CDT (10/26) 4:12 AM CDT (10/26)
Length of Visible Light 11h 56m
Length of Day
11h 06m
Waxing Gibbous, 91% of the Moon is Illuminated
Oct 26
Waxing Gibbous
Oct 29
Full
Nov 6
Last Quarter
Nov 13
New
Nov 20
First Quarter

Hourly Weather History & Observations

Time (CDT) Temp. Heat Index Dew Point Humidity Pressure Visibility Wind Dir Wind Speed Gust Speed Precip Events Conditions
12:55 AM 68.5 °F - 68.0 °F 98% 29.95 in 10.0 mi NNE 3.5 mph - N/A   Clear
1:55 AM 67.8 °F - 67.1 °F 98% 29.94 in 10.0 mi Calm Calm - N/A   Clear
2:55 AM 67.1 °F - 66.2 °F 97% 29.94 in 10.0 mi NNE 3.5 mph - N/A   Clear
3:55 AM 67.1 °F - 66.2 °F 97% 29.94 in 10.0 mi North 6.9 mph - N/A   Clear
4:55 AM 66.7 °F - 65.7 °F 96% 29.94 in 10.0 mi North 4.6 mph - N/A   Clear
5:55 AM 65.5 °F - 64.8 °F 98% 29.94 in 10.0 mi Calm Calm - N/A   Clear
6:55 AM 64.9 °F - 63.9 °F 96% 29.95 in 10.0 mi North 3.5 mph - N/A   Clear
7:55 AM 65.3 °F - 63.5 °F 94% 29.98 in 10.0 mi NNE 5.8 mph - N/A   Clear
8:55 AM 68.2 °F - 64.8 °F 89% 29.99 in 10.0 mi North 9.2 mph - N/A   Clear
9:55 AM 72.7 °F - 65.3 °F 78% 30.00 in 10.0 mi North 9.2 mph - N/A   Clear
10:55 AM 78.4 °F - 64.9 °F 63% 30.00 in 10.0 mi NNE 5.8 mph - N/A   Clear
11:55 AM 81.5 °F 82.8 °F 63.3 °F 54% 29.98 in 10.0 mi NE 8.1 mph - N/A   Clear
12:55 PM 82.4 °F 83.0 °F 61.7 °F 49% 29.95 in 10.0 mi NNE 8.1 mph - N/A   Clear
1:55 PM 83.5 °F 83.7 °F 60.4 °F 46% 29.94 in 10.0 mi North 8.1 mph - N/A   Partly Cloudy
2:55 PM 83.7 °F 83.6 °F 59.7 °F 44% 29.92 in 10.0 mi North 10.4 mph - N/A   Partly Cloudy
3:55 PM 83.8 °F 84.0 °F 60.6 °F 45% 29.91 in 10.0 mi North 9.2 mph - N/A   Clear
4:55 PM 82.0 °F 82.8 °F 61.5 °F 50% 29.90 in 10.0 mi NNW 8.1 mph - N/A   Clear
5:55 PM 79.3 °F - 61.9 °F 55% 29.90 in 10.0 mi North 5.8 mph - N/A   Clear
6:55 PM 76.3 °F - 63.7 °F 65% 29.91 in 10.0 mi NW 4.6 mph - N/A   Clear
7:55 PM 74.5 °F - 63.1 °F 68% 29.93 in 10.0 mi NNW 4.6 mph - N/A   Clear
8:55 PM 73.4 °F - 62.4 °F 68% 29.94 in 10.0 mi North 6.9 mph - N/A   Clear
9:55 PM 72.0 °F - 64.4 °F 77% 29.95 in 10.0 mi North 15.0 mph - N/A   Clear
10:55 PM 69.3 °F - 63.1 °F 81% 29.96 in 10.0 mi North 12.7 mph - N/A   Clear
11:55 PM 65.5 °F - 59.9 °F 82% 29.97 in 10.0 mi North 13.8 mph - N/A   Clear